Location: Doverdale
(52.2833°N, 2.2000°W)
Time: 02:51:07
(UTC+00:00)

Cosmos 1980 Rocket - Pass Details

Date: 05 March 2021
Orbit: 828 x 851 km, 71.0° (Epoch: 15 April)

Event Time Altitude Azimuth Distance (km) Brightness Sun altitude
Rises 23:56:54 0° 327° (NNW) 3,428 6.0 -43.5°
Reaches altitude 10° 00:00:05 10° 344° (NNW) 2,491 5.2 -43.6°
Enters shadow 00:02:04 16° 3° (N) 2,071 4.7 -43.6°
